Weather History for Fort Worth NAS, TX

Change the Weather History Date:

Sunday, December 15, 2013

  Actual Average Record
Temperature  
Mean Temperature 47 °F -  
Max Temperature 64 °F 56 °F 80 °F (2010)
Min Temperature 30 °F 36 °F 24 °F (2008)
Degree Days  
Heating Degree Days 18    
Moisture  
Dew Point 26 °F    
Average Humidity 52    
Maximum Humidity 76    
Minimum Humidity 21    
Precipitation  
Precipitation 0.00 in - - ()
Sea Level Pressure  
Sea Level Pressure 30.28 in    
Wind  
Wind Speed 3 mph (SW)    
Max Wind Speed 10 mph    
Max Gust Speed -    
Visibility 9 miles    
Events      
Averages and records for this station are not official NWS values.
T = Trace of Precipitation, MM = Missing Value Source: NWS Daily Summary

Daily Weather History Graph

Daily Weather History Graph

Search for Another Location

Airport:

Trip Planner

Search our weather history database for the weather conditions in past years. The results will help you decide how hot, cold, wet, or windy it might be!

Date:

Astronomy

Dec. 15, 2013 Rise Set
Actual Time 7:24 AM CST 5:25 PM CST
Civil Twilight 6:57 AM CST 5:52 PM CST
Nautical Twilight 6:26 AM CST 6:23 PM CST
Astronomical Twilight 5:56 AM CST 6:53 PM CST
Moon 4:27 PM CST (12/15) 5:46 AM CST (12/15)
Length of Visible Light 10h 54m
Length of Day
10h 00m
Waxing Gibbous, 98% of the Moon is Illuminated
Dec 15
Waxing Gibbous
Dec 17
Full
Dec 25
Last Quarter
Jan 1
New
Jan 7
First Quarter

Hourly Weather History & Observations

Time (CST) Temp. Windchill Dew Point Humidity Pressure Visibility Wind Dir Wind Speed Gust Speed Precip Events Conditions
12:52 AM 34.0 °F - 23.0 °F 64% 30.32 in 10.0 mi Calm Calm - N/A   Clear
1:52 AM 34.0 °F 31.0 °F 26.1 °F 73% 30.31 in 8.0 mi NW 3.5 mph - N/A   Clear
2:52 AM 32.0 °F 27.5 °F 24.1 °F 73% 30.32 in 8.0 mi WNW 4.6 mph - N/A   Clear
3:52 AM 32.0 °F - 23.0 °F 69% 30.31 in 9.0 mi Calm Calm - N/A   Clear
4:52 AM 32.0 °F 28.7 °F 23.0 °F 69% 30.31 in 9.0 mi WNW 3.5 mph - N/A   Clear
5:52 AM 32.0 °F - 24.1 °F 73% 30.30 in 7.0 mi Calm Calm - N/A   Clear
6:52 AM 30.9 °F - 24.1 °F 76% 30.32 in 8.0 mi Calm Calm - N/A   Clear
7:52 AM 30.9 °F - 23.0 °F 72% 30.33 in 8.0 mi Calm Calm - N/A   Clear
8:10 AM 32.0 °F 28.7 °F 24.8 °F 75% 30.39 in 7.0 mi South 3.5 mph - N/A   Clear
8:52 AM 37.0 °F - 27.0 °F 67% 30.34 in 10.0 mi Calm Calm - N/A   Clear
9:52 AM 44.1 °F - 28.9 °F 55% 30.35 in 10.0 mi Calm Calm - N/A   Clear
10:52 AM 54.0 °F - 27.0 °F 35% 30.34 in 7.0 mi SSW 9.2 mph - N/A   Clear
11:52 AM 57.0 °F - 26.1 °F 30% 30.31 in 10.0 mi WSW 6.9 mph - N/A   Clear
12:52 PM 60.1 °F - 26.1 °F 27% 30.27 in 10.0 mi West 6.9 mph - N/A   Clear
1:52 PM 62.1 °F - 23.0 °F 22% 30.25 in 10.0 mi West 8.1 mph - N/A   Clear
2:52 PM 64.0 °F - 23.0 °F 21% 30.24 in 10.0 mi West 5.8 mph - N/A   Clear
3:52 PM 63.0 °F - 21.9 °F 21% 30.23 in 10.0 mi SW 5.8 mph - N/A   Clear
4:52 PM 59.0 °F - 27.0 °F 29% 30.21 in 10.0 mi SSW 8.1 mph - N/A   Clear
5:52 PM 57.9 °F - 25.0 °F 28% 30.22 in 10.0 mi South 4.6 mph - N/A   Clear
6:52 PM 46.9 °F - 28.0 °F 48% 30.22 in 10.0 mi SSE 4.6 mph - N/A   Clear
7:52 PM 50.0 °F - 28.9 °F 44% 30.23 in 10.0 mi SSE 4.6 mph - N/A   Clear
8:52 PM 44.1 °F 38.6 °F 28.9 °F 55% 30.24 in 10.0 mi South 10.4 mph - N/A   Clear
9:52 PM 43.0 °F 37.2 °F 30.0 °F 60% 30.25 in 10.0 mi South 10.4 mph - N/A   Clear
10:52 PM 44.1 °F 39.5 °F 30.9 °F 60% 30.25 in 10.0 mi South 8.1 mph - N/A   Clear
11:52 PM 42.1 °F 36.6 °F 30.9 °F 65% 30.23 in 10.0 mi South 9.2 mph - N/A   Clear